283P/Spacewatch (2013)

Japanese version
Home page
Updated on May 7, 2015

---------------------------------------------------------------------

* Profile

Designation 283P/2013 EV9
Discovery Date March 2, 2013
Magnitude 19.2 mag
Discoverer T. H. Bressi (Spacewatch)

* Pictures

* Orbital Elements

Epoch 2013 Apr. 18.0 TT = JDT 2456400.5
T 2013 Apr. 7.17157 TT                                  MPC
q   2.1250881            (2000.0)            P               Q
n   0.11735863     Peri.   22.10803     -0.99446896     +0.06756820
a   4.1316739      Node   161.22345     -0.08035062     -0.98248000
e   0.4856593      Incl.   14.46687     +0.06764075     -0.17368817
P   8.40
From 105 observations 1996 Feb. 17-2013 June 11, mean residual 0".6.

* Magnitudes Graph

        m1 = 11.0 + 5 log d + 20.0 log r(t - 100)

---------------------------------------------------------------------

The orbital elements are published on M.P.E.C. 2013-M31.
The magnitudes graphs are made with Comet for Windows.

---------------------------------------------------------------------

Copyright(C) Seiichi Yoshida (comet@aerith.net). All rights reserved.